Temperature
-10 -10 -11 -11 -12 -12 -13 -13 -13 -13 -14 -14 -14 -14 -13 -13 -13 -12 -12 -11 -10 -9 -9 -9 -8 -8 -8 -7 -7 -6 -6 -5 -5 -4 -4 -3 -1 2 4 5 6 8 9
-10 -11 -11 -11 -12 -12 -13 -13 -13 -13 -14 -14 -14 -13 -13 -13 -13 -12 -11 -10 -10 -9 -9 -9 -8 -8 -8 -7 -7 -6 -6 -5 -5 -4 -3 -3 -1 0 2 3 5 6 8
-10 -11 -11 -12 -12 -13 -13 -13 -13 -13 -13 -13 -13 -13 -13 -13 -12 -11 -10 -10 -10 -9 -9 -9 -8 -8 -8 -8 -7 -6 -5 -5 -4 -3 -3 -2 -1 -0 1 2 3 5 7
-10 -11 -11 -12 -12 -13 -13 -13 -13 -13 -13 -13 -13 -13 -12 -12 -11 -10 -10 -10 -9 -9 -9 -9 -9 -9 -9 -8 -8 -7 -6 -4 -4 -3 -2 -2 -1 -0 0 1 2 4 6
-10 -11 -11 -12 -12 -13 -13 -13 -13 -13 -13 -13 -13 -12 -12 -11 -10 -10 -10 -10 -10 -9 -9 -9 -9 -9 -9 -9 -8 -8 -7 -5 -4 -3 -2 -1 -1 -0 0 1 2 3 5
-10 -11 -11 -12 -12 -13 -13 -13 -13 -13 -13 -13 -12 -12 -11 -10 -10 -10 -10 -10 -10 -10 -10 -9 -9 -9 -10 -9 -9 -8 -8 -7 -6 -4 -3 -2 -1 -1 0 1 1 2 4
-10 -11 -11 -12 -13 -13 -13 -13 -13 -13 -13 -13 -13 -12 -11 -11 -10 -11 -11 -10 -10 -10 -10 -10 -10 -10 -10 -10 -9 -9 -8 -8 -7 -6 -5 -4 -3 -2 -1 1 1 2 3
-10 -11 -11 -12 -12 -13 -13 -13 -13 -13 -13 -13 -13 -12 -12 -11 -11 -11 -11 -11 -11 -11 -11 -11 -11 -10 -10 -10 -10 -9 -9 -8 -8 -7 -6 -5 -4 -3 -2 -0 1 2 3
-10 -10 -11 -12 -12 -13 -13 -13 -13 -13 -13 -13 -13 -12 -12 -12 -11 -11 -12 -12 -12 -11 -11 -12 -11 -11 -11 -11 -10 -10 -9 -8 -8 -8 -7 -6 -5 -4 -2 -1 1 2 3
-10 -10 -11 -11 -12 -13 -13 -13 -13 -13 -13 -13 -13 -13 -12 -13 -12 -12 -12 -13 -12 -12 -12 -12 -12 -12 -12 -11 -11 -11 -11 -9 -8 -7 -7 -6 -5 -3 -3 -1 -0 1 3
-9 -9 -10 -11 -12 -12 -12 -13 -13 -13 -13 -13 -13 -13 -13 -13 -13 -12 -12 -13 -13 -13 -13 -13 -13 -13 -12 -12 -12 -12 -12 -10 -9 -9 -8 -7 -5 -4 -3 -2 -1 1 2
-8 -9 -10 -11 -12 -12 -12 -13 -13 -13 -13 -13 -13 -13 -13 -13 -13 -13 -13 -13 -14 -13 -14 -14 -14 -13 -13 -12 -12 -12 -11 -10 -10 -9 -9 -8 -7 -6 -4 -3 -2 -1 1
-8 -9 -10 -10 -11 -12 -12 -12 -13 -13 -13 -13 -13 -13 -13 -13 -13 -13 -13 -13 -14 -14 -14 -14 -14 -14 -13 -12 -13 -12 -11 -11 -11 -10 -10 -10 -9 -8 -6 -4 -2 -1 0
-8 -8 -9 -10 -10 -11 -12 -12 -13 -13 -13 -13 -13 -13 -13 -13 -13 -13 -13 -13 -14 -14 -13 -14 -14 -14 -13 -13 -13 -12 -12 -12 -12 -11 -11 -10 -9 -8 -6 -4 -3 -2 -0
-8 -8 -9 -9 -10 -10 -11 -12 -12 -13 -13 -13 -13 -13 -13 -13 -13 -13 -13 -13 -14 -14 -14 -13 -14 -14 -14 -14 -14 -13 -13 -13 -12 -12 -11 -11 -10 -9 -8 -7 -5 -2 -1
-7 -8 -9 -9 -10 -10 -10 -10 -11 -12 -12 -13 -13 -13 -13 -13 -13 -13 -13 -13 -14 -14 -14 -14 -14 -15 -15 -15 -15 -14 -14 -14 -13 -13 -12 -11 -11 -10 -9 -8 -7 -5 -4
-7 -8 -8 -9 -9 -10 -10 -10 -10 -10 -11 -11 -12 -12 -13 -13 -13 -13 -13 -14 -14 -14 -14 -14 -14 -15 -15 -15 -15 -15 -15 -14 -14 -13 -13 -12 -12 -11 -10 -9 -9 -8 -7
-7 -8 -8 -9 -9 -9 -10 -10 -10 -10 -10 -10 -11 -11 -12 -12 -13 -13 -14 -14 -14 -14 -14 -14 -14 -15 -15 -15 -15 -15 -15 -14 -14 -14 -13 -13 -12 -12 -11 -11 -10 -9 -8
-7 -7 -8 -8 -9 -9 -9 -9 -10 -10 -10 -10 -10 -10 -11 -11 -12 -12 -13 -13 -14 -14 -14 -14 -14 -14 -14 -15 -15 -15 -15 -15 -14 -14 -14 -13 -13 -13 -12 -12 -11 -10 -9
-7 -7 -7 -8 -8 -8 -9 -9 -9 -10 -10 -10 -10 -10 -11 -11 -11 -11 -12 -13 -13 -13 -14 -14 -14 -14 -14 -14 -14 -14 -14 -14 -14 -14 -14 -14 -13 -13 -13 -13 -12 -12 -11
-6 -7 -7 -7 -7 -8 -8 -9 -9 -10 -10 -10 -10 -10 -11 -11 -11 -11 -11 -11 -12 -13 -13 -13 -14 -14 -14 -14 -14 -14 -14 -14 -14 -14 -14 -14 -14 -13 -13 -13 -13 -13 -12
-6 -6 -6 -6 -7 -7 -7 -8 -8 -9 -10 -10 -11 -11 -11 -11 -11 -11 -11 -11 -11 -11 -12 -12 -13 -13 -13 -13 -13 -13 -14 -14 -14 -14 -14 -14 -14 -14 -14 -13 -13 -13 -13
-6 -6 -6 -6 -6 -6 -6 -7 -7 -8 -9 -10 -11 -12 -12 -11 -11 -11 -11 -11 -10 -10 -11 -11 -12 -12 -12 -13 -13 -13 -13 -13 -13 -13 -14 -14 -14 -14 -14 -14 -13 -13 -13
-5 -5 -5 -5 -5 -5 -6 -6 -7 -7 -8 -9 -10 -11 -12 -12 -12 -11 -11 -11 -10 -10 -10 -10 -10 -11 -11 -12 -12 -12 -12 -13 -13 -13 -13 -13 -13 -14 -14 -14 -14 -13 -13
-5 -5 -5 -5 -5 -5 -6 -6 -6 -7 -7 -8 -9 -10 -11 -12 -12 -11 -11 -11 -10 -10 -10 -10 -10 -10 -10 -11 -11 -12 -12 -12 -12 -13 -13 -13 -13 -13 -13 -13 -14 -14 -13
-5 -5 -5 -5 -5 -6 -6 -6 -6 -6 -7 -7 -8 -9 -10 -11 -11 -11 -11 -11 -10 -10 -10 -9 -9 -9 -9 -10 -10 -11 -11 -12 -12 -12 -12 -13 -13 -13 -13 -13 -13 -13 -13
Wind_Speed
10 10 11 11 11 12 10 11 12 13 16 14 14 15 16 15 13 13 14 15 15 14 14 14 13 12 10 10 10 11 12 13 16 15 11 11 12 13 13 11 14 12 9
10 10 11 12 11 12 12 12 15 13 16 16 15 16 17 16 15 15 16 15 14 15 14 12 11 10 11 10 10 11 11 12 14 17 12 9 11 10 10 11 12 10 7
10 11 11 12 12 12 13 13 14 14 14 16 15 16 17 17 17 16 14 14 13 12 10 9 10 11 11 10 11 10 9 10 10 12 11 8 7 7 8 10 12 10 8
11 11 11 12 12 13 12 12 13 13 14 15 17 18 19 19 17 14 11 8 7 6 8 9 10 11 13 13 10 11 11 8 7 8 9 7 6 6 5 7 7 7 6
11 11 12 12 12 12 12 12 12 13 15 15 17 19 20 18 11 9 8 9 9 9 10 11 11 16 22 18 13 13 13 10 7 6 5 5 4 3 3 3 6 6 5
10 11 12 13 13 13 12 12 13 14 14 15 16 18 21 18 23 25 19 13 12 12 12 12 12 13 20 24 25 23 21 16 13 9 6 5 4 3 2 2 4 5 4
10 10 12 12 13 13 14 13 13 13 12 13 15 17 19 22 29 27 26 15 13 13 13 13 14 16 16 12 19 22 21 24 22 13 10 9 7 7 6 3 3 4 4
9 10 11 11 12 12 12 12 11 9 11 11 12 15 16 22 28 25 23 14 12 13 13 14 13 15 17 17 14 14 14 15 18 13 11 11 11 9 6 5 3 4 5
9 10 11 11 12 12 12 11 9 9 8 10 11 13 15 18 27 24 20 10 11 12 14 16 17 14 26 26 18 16 15 15 19 23 21 19 20 19 14 4 2 3 3
10 11 10 11 11 11 11 10 8 8 9 11 11 11 13 14 24 25 19 10 11 11 12 14 21 23 26 27 17 16 17 15 16 16 17 18 15 15 18 9 5 2 1
10 10 10 10 10 10 10 8 9 9 9 9 10 10 10 14 20 25 23 9 11 11 11 11 14 25 26 27 22 16 20 16 13 13 12 13 13 12 12 11 8 3 1
8 9 9 9 10 11 10 9 8 8 7 8 8 8 8 10 15 19 24 21 17 12 11 9 13 24 24 25 21 23 25 20 12 12 13 13 13 13 12 12 11 7 4
8 8 8 9 9 9 8 8 8 7 5 6 7 7 8 8 10 17 19 20 21 11 10 18 20 23 21 18 24 26 20 14 13 13 13 13 12 12 12 11 11 8 8
8 8 8 7 8 8 8 8 7 7 6 6 6 7 7 8 7 5 5 7 12 11 9 14 19 21 18 19 19 16 14 13 13 12 12 12 12 12 12 11 10 8 7
7 7 8 8 8 7 8 7 8 6 9 8 5 6 7 6 9 14 9 6 5 8 8 8 9 10 12 12 12 12 12 13 13 12 12 12 13 13 12 12 12 10 9
6 7 6 6 7 8 8 8 13 14 17 16 15 13 10 14 15 14 13 13 15 16 9 6 8 9 10 11 11 11 11 12 12 12 12 12 12 13 13 12 11 12 12
6 7 5 6 7 8 8 9 10 13 17 16 16 16 15 16 16 16 14 12 13 12 5 5 5 6 6 7 7 7 8 9 9 9 11 11 11 11 12 12 12 12 12
6 8 7 5 6 7 7 8 8 10 11 10 13 16 16 16 15 15 13 9 6 6 3 3 4 5 5 5 6 6 6 7 7 8 9 10 10 11 11 12 12 13 12
6 6 5 5 6 6 7 8 8 9 10 10 10 11 15 14 14 13 11 4 4 4 4 4 4 4 4 4 5 5 5 6 6 6 7 8 9 9 10 11 11 16 14
5 10 8 5 6 7 7 7 9 9 10 10 11 10 9 7 6 8 6 5 5 5 4 4 4 4 4 4 4 4 5 5 6 6 6 6 7 7 8 10 10 10 11
5 6 10 7 5 6 6 6 8 9 10 11 10 14 20 10 9 9 8 7 6 6 5 5 4 4 4 3 3 3 4 4 4 4 5 5 5 5 5 7 8 9 9
4 4 5 5 5 6 6 6 7 8 10 10 10 11 20 12 10 9 8 8 7 6 6 5 5 5 4 4 4 3 3 3 3 3 4 4 4 5 5 6 6 7 8
3 5 5 5 5 8 7 6 6 8 9 10 10 11 11 12 12 12 12 11 8 7 9 8 6 5 9 10 10 7 5 4 3 2 2 2 3 3 4 4 5 6 7
3 4 5 5 5 5 6 6 7 8 9 9 10 11 11 11 12 13 14 13 11 10 10 10 10 11 12 12 12 13 13 11 9 6 4 2 1 1 2 3 3 4 5
1 3 4 4 5 5 6 7 8 9 10 10 11 11 12 12 12 13 13 12 14 13 14 12 11 13 15 17 16 16 16 15 13 11 8 5 3 2 2 1 2 2 3
0 2 3 4 4 5 5 6 7 9 9 10 10 11 11 12 12 13 13 12 15 14 15 16 14 14 16 17 19 21 20 19 17 15 12 8 5 4 4 3 3 2 3
Wind_Direction
324 318 319 319 317 317 318 318 317 316 317 317 318 316 314 311 308 306 304 302 300 300 301 298 297 296 295 291 286 277 269 261 266 275 275 279 281 289 297 302 305 304 286
323 323 323 321 319 320 320 318 318 316 318 319 318 316 314 313 309 305 303 301 299 299 301 304 309 313 310 305 299 286 274 265 265 271 272 267 266 272 281 290 294 295 281
328 329 326 325 325 324 321 319 320 320 320 321 322 319 318 314 311 305 299 296 296 301 312 324 330 336 334 327 320 318 300 277 264 266 267 257 256 258 268 276 282 288 277
336 331 330 330 328 324 322 321 323 325 325 326 327 327 324 318 312 308 304 305 322 342 350 349 351 1 354 346 344 344 334 314 283 272 266 257 250 245 239 255 273 274 267
334 336 336 333 329 328 328 328 330 334 338 334 335 335 334 333 344 6 23 29 22 13 5 357 358 13 11 7 8 5 359 358 348 325 298 272 259 260 230 218 252 269 265
333 334 335 336 336 334 334 339 341 341 340 341 342 342 345 355 27 43 45 30 22 14 7 0 360 8 17 11 12 15 14 14 13 5 353 342 333 320 306 244 236 255 248
332 333 336 336 337 336 341 344 343 340 341 343 344 348 350 359 27 38 38 30 20 14 8 5 7 5 21 13 8 13 13 14 19 15 4 356 348 348 329 281 231 243 254
334 334 336 337 335 335 339 342 339 336 341 341 343 350 353 0 20 34 32 21 16 11 5 4 9 2 14 21 8 9 12 10 10 12 6 357 355 354 329 294 280 266 265
342 340 338 337 336 338 343 340 337 336 339 342 348 351 354 354 11 30 34 12 13 7 6 6 11 10 13 20 13 8 10 7 5 8 10 8 6 5 5 340 297 225 217
344 340 338 341 338 338 341 337 336 337 345 350 351 351 351 351 8 25 39 25 15 9 7 5 9 15 14 19 18 10 12 4 358 359 2 2 1 360 7 7 342 288 214
337 339 343 343 338 344 340 335 337 343 342 343 348 348 348 358 6 18 30 38 24 11 9 5 6 14 15 18 20 16 14 10 359 359 359 360 1 1 358 353 347 328 303
336 341 341 340 344 351 335 334 336 338 335 337 343 348 347 346 1 15 23 28 32 19 5 4 10 17 16 16 19 17 15 13 6 4 5 5 2 358 352 346 345 355 17
337 338 334 336 339 339 331 332 337 340 336 343 346 347 344 344 345 10 20 23 25 26 10 16 17 18 16 13 15 17 15 11 9 7 4 360 354 351 354 354 355 1 28
335 330 331 335 337 334 340 344 340 339 340 340 340 334 330 333 329 334 353 14 20 23 14 10 16 17 18 14 14 14 13 13 13 7 359 355 355 1 9 9 9 8 32
330 327 330 339 332 332 337 338 343 330 352 351 328 326 327 320 336 358 8 4 5 18 13 8 10 12 13 11 11 12 12 12 12 7 5 3 4 7 12 14 21 33 48
335 329 321 328 335 336 330 332 346 353 353 354 351 349 342 345 349 353 357 3 6 13 18 6 9 10 10 8 7 7 9 12 10 9 10 9 9 9 12 17 25 35 44
325 319 316 334 333 334 334 335 334 339 345 349 349 346 345 347 350 348 352 1 1 9 14 350 351 353 354 356 357 358 1 1 4 10 13 12 13 15 17 21 25 32 39
323 324 332 318 321 323 326 328 329 331 333 333 337 338 339 341 344 343 346 354 348 354 338 330 331 336 341 344 348 351 351 357 3 8 12 14 17 20 24 24 28 33 37
324 316 315 317 320 322 325 332 335 333 333 330 328 331 333 329 332 337 343 335 308 310 309 311 313 321 329 335 339 344 348 353 358 1 9 13 17 24 29 29 33 37 41
317 335 342 334 328 329 329 336 341 341 340 339 338 331 324 320 324 324 322 301 292 287 285 287 292 299 311 319 326 337 346 352 356 1 2 7 13 23 29 31 34 39 42
312 323 343 339 325 323 327 335 338 340 343 342 341 341 354 352 332 320 312 302 290 283 276 270 270 277 283 288 296 314 332 340 348 353 359 3 9 19 23 31 35 40 45
310 311 316 318 322 330 344 336 335 338 338 337 340 345 354 353 340 330 319 306 289 274 267 259 254 248 242 247 255 269 287 305 321 338 351 3 11 18 25 32 35 38 43
315 318 323 326 323 343 348 334 339 340 337 334 340 347 349 349 349 347 342 333 315 291 272 258 251 246 246 245 243 232 236 251 257 253 297 344 10 23 30 35 37 41 41
318 323 328 330 334 338 336 337 341 343 340 337 343 346 346 345 344 343 343 340 334 322 296 268 253 247 244 241 240 239 240 246 249 240 228 223 272 36 53 50 48 50 48
326 328 331 329 335 336 336 339 342 344 344 343 345 344 344 344 342 340 339 338 337 334 326 306 272 253 246 240 234 233 237 239 237 230 217 194 188 177 145 108 88 72 65
290 324 322 322 329 331 333 335 337 339 340 341 340 339 341 341 339 337 336 337 337 336 333 329 311 281 254 241 235 233 234 233 231 227 209 190 181 183 174 165 157 135 114
Height
1543 1536 1529 1522 1515 1508 1501 1493 1486 1479 1472 1465 1458 1451 1444 1438 1433 1428 1424 1420 1417 1414 1412 1409 1406 1404 1400 1397 1394 1392 1390 1388 1383 1379 1381 1381 1381 1382 1386 1389 1392 1397 1402
1540 1533 1527 1519 1512 1506 1499 1492 1485 1478 1471 1463 1456 1448 1440 1434 1428 1423 1419 1416 1414 1411 1409 1407 1404 1400 1397 1393 1389 1385 1383 1381 1379 1376 1377 1378 1378 1379 1380 1383 1387 1391 1397
1538 1531 1524 1518 1511 1504 1498 1491 1484 1477 1469 1462 1454 1445 1437 1429 1423 1418 1415 1413 1411 1410 1408 1405 1402 1398 1394 1389 1384 1380 1376 1374 1373 1372 1372 1375 1376 1376 1377 1379 1382 1386 1391
1537 1530 1523 1517 1510 1504 1497 1491 1484 1477 1469 1461 1453 1444 1434 1425 1419 1415 1413 1412 1412 1410 1408 1405 1402 1398 1393 1387 1382 1376 1371 1368 1367 1368 1368 1370 1372 1372 1373 1375 1378 1383 1387
1535 1529 1523 1517 1511 1504 1497 1491 1484 1477 1470 1462 1454 1444 1434 1424 1419 1417 1416 1416 1414 1412 1409 1406 1402 1399 1393 1387 1381 1375 1369 1366 1364 1364 1365 1366 1368 1369 1370 1372 1376 1380 1383
1535 1529 1523 1517 1511 1504 1497 1491 1485 1478 1471 1464 1456 1448 1439 1431 1427 1424 1422 1420 1417 1415 1411 1407 1403 1399 1393 1386 1380 1374 1370 1366 1364 1362 1363 1364 1366 1367 1368 1371 1374 1377 1381
1535 1529 1523 1517 1511 1505 1499 1492 1486 1479 1472 1466 1460 1453 1445 1439 1435 1431 1428 1424 1421 1418 1414 1410 1405 1401 1394 1387 1380 1375 1370 1367 1365 1363 1363 1363 1364 1365 1366 1368 1371 1374 1377
1535 1529 1523 1517 1511 1505 1499 1493 1487 1480 1474 1468 1463 1457 1451 1446 1442 1437 1432 1429 1425 1421 1417 1413 1409 1403 1398 1390 1383 1377 1372 1368 1365 1363 1362 1362 1362 1363 1363 1365 1367 1372 1375
1534 1529 1523 1518 1512 1506 1500 1494 1488 1482 1477 1471 1467 1461 1455 1450 1446 1441 1435 1431 1427 1423 1419 1415 1412 1406 1401 1393 1386 1380 1375 1371 1367 1365 1362 1361 1360 1360 1361 1363 1365 1369 1372
1535 1529 1524 1519 1513 1507 1502 1496 1491 1485 1480 1475 1470 1465 1460 1454 1450 1445 1439 1434 1430 1426 1422 1417 1414 1409 1404 1397 1389 1384 1378 1374 1369 1365 1362 1360 1358 1358 1358 1359 1361 1365 1368
1536 1531 1525 1520 1514 1509 1503 1498 1493 1487 1482 1477 1473 1468 1463 1458 1454 1450 1444 1438 1433 1429 1425 1420 1416 1412 1406 1400 1394 1389 1385 1379 1373 1368 1364 1360 1357 1356 1356 1356 1358 1361 1365
1537 1532 1526 1521 1515 1510 1504 1499 1494 1488 1484 1479 1474 1470 1466 1462 1457 1454 1449 1444 1438 1433 1429 1425 1420 1414 1409 1403 1398 1393 1388 1382 1377 1371 1367 1362 1358 1356 1355 1356 1357 1359 1362
1538 1533 1527 1522 1516 1511 1504 1499 1494 1489 1485 1480 1476 1472 1468 1464 1460 1456 1452 1448 1443 1437 1432 1429 1423 1417 1411 1406 1401 1396 1391 1385 1381 1376 1371 1367 1363 1360 1357 1357 1357 1359 1361
1538 1533 1528 1523 1517 1512 1506 1500 1495 1490 1486 1482 1477 1473 1469 1465 1462 1458 1454 1450 1445 1441 1436 1431 1426 1420 1415 1410 1405 1400 1395 1391 1387 1383 1378 1374 1369 1364 1360 1358 1358 1359 1361
1538 1534 1529 1524 1519 1513 1508 1502 1496 1491 1488 1483 1478 1474 1470 1466 1463 1460 1457 1452 1448 1444 1439 1434 1428 1423 1418 1413 1409 1405 1401 1397 1392 1388 1384 1379 1374 1370 1365 1362 1360 1360 1361
1538 1534 1529 1524 1520 1515 1509 1504 1500 1494 1488 1483 1479 1475 1471 1468 1463 1460 1457 1453 1450 1446 1441 1436 1432 1427 1423 1419 1414 1410 1406 1402 1398 1394 1390 1386 1381 1377 1373 1370 1366 1364 1364
1538 1534 1529 1525 1520 1516 1510 1505 1500 1495 1490 1484 1479 1474 1471 1467 1463 1459 1456 1453 1450 1446 1442 1439 1435 1432 1428 1424 1420 1416 1412 1408 1405 1401 1397 1393 1389 1385 1381 1378 1375 1372 1371
1538 1534 1530 1526 1521 1517 1512 1507 1501 1495 1490 1485 1480 1475 1470 1466 1462 1458 1455 1451 1448 1445 1443 1440 1437 1434 1431 1428 1424 1420 1417 1414 1410 1406 1403 1399 1396 1393 1389 1386 1383 1382 1380
1537 1533 1530 1526 1521 1517 1513 1508 1503 1498 1492 1486 1481 1476 1471 1466 1462 1457 1453 1450 1446 1444 1442 1440 1438 1435 1433 1430 1427 1424 1421 1418 1415 1412 1409 1406 1403 1400 1397 1394 1392 1391 1389
1536 1533 1529 1525 1521 1516 1512 1507 1503 1498 1493 1487 1482 1476 1471 1466 1461 1457 1453 1449 1446 1443 1441 1439 1437 1435 1433 1432 1430 1427 1425 1422 1419 1416 1414 1411 1409 1407 1405 1403 1401 1399 1398
1535 1532 1528 1524 1520 1516 1511 1506 1502 1498 1493 1488 1483 1478 1474 1468 1463 1458 1453 1449 1445 1441 1439 1437 1435 1434 1433 1431 1430 1429 1427 1425 1423 1421 1418 1416 1414 1413 1411 1410 1409 1408 1407
1534 1531 1527 1523 1519 1515 1510 1506 1502 1497 1493 1488 1483 1478 1474 1469 1463 1458 1454 1449 1445 1441 1437 1435 1433 1431 1431 1430 1429 1429 1428 1427 1426 1424 1422 1420 1419 1417 1416 1415 1415 1414 1414
1533 1530 1527 1523 1519 1515 1511 1506 1502 1497 1492 1487 1483 1478 1473 1468 1464 1459 1454 1449 1445 1441 1437 1433 1430 1429 1428 1427 1427 1427 1427 1427 1427 1426 1425 1423 1422 1421 1420 1420 1419 1419 1419
1531 1529 1526 1523 1519 1515 1511 1506 1502 1497 1492 1487 1482 1478 1473 1468 1464 1459 1454 1449 1445 1440 1436 1432 1428 1426 1424 1423 1423 1424 1424 1425 1426 1426 1426 1425 1424 1424 1423 1423 1423 1423 1423
1530 1528 1526 1523 1519 1515 1511 1507 1502 1497 1492 1487 1482 1477 1472 1468 1463 1458 1454 1449 1444 1440 1435 1431 1427 1423 1420 1419 1418 1419 1420 1422 1423 1424 1425 1425 1426 1425 1425 1425 1425 1425 1426
1528 1526 1524 1522 1519 1515 1511 1507 1503 1498 1493 1488 1482 1477 1472 1467 1462 1457 1453 1448 1444 1439 1434 1430 1425 1421 1417 1415 1413 1413 1414 1416 1418 1420 1422 1424 1425 1425 1426 1427 1427 1427 1428